カタログに戻る

SUXING-1 01

運用中科学SSO
NORAD 60749·PAYLOAD·🇨🇳 China
この衛星名は、まだ公式ソースで確認されていません。

打ち上げ Aug 29, 2024 から Yellow Sea Launch Area

Loading…

次のパス (今後24時間)

TLE

最新Source: Space-Track

元期: Sep 14, 2026, 14:14 UTC

1 60749U 24153E   26257.59313977  .00010961  00000-0  39282-3 0  9991
2 60749  97.6831  37.5737 0000371 263.2516  96.8681 15.28918032113484

AllMySatでSUXING-1 01をリアルタイム追跡

Download on the App Store